Miscellaneous Local Product
Issued by NWS Hastings, NE

Home | Current Version | Previous Version | Text Only | Print | Product List | Glossary On
Versions: 1 2 3 4 5 6 7 8 9 10 11 12 13 14 15 16 17 18 19 20 21 22 23 24 25 26 27 28 29 30 31 32 33 34 35 36 37 38 39 40 41 42 43 44 45 46 47 48 49 50
500
AXUS43 KGID 260502
MISGRI

GID CWA HOURLY WEATHER ROUNDUP
NATIONAL WEATHER SERVICE HASTINGS NE
1200 AM CDT MON JUN 26 2017

NOTE: "FAIR" INDICATES FEW OR NO CLOUDS BELOW 12,000 FEET WITH NO
SIGNIFICANT WEATHER AND/OR OBSTRUCTIONS TO VISIBILITY.

...SOUTH CENTRAL NEBRASKA...

CITY           SKY/WX    TMP DP  RH WIND       PRES   REMARKS
GRAND ISLAND   CLEAR     62  50  64 S10       30.22S
HASTINGS       CLEAR     61  48  62 SW5       30.26R
KEARNEY        CLEAR     57  46  67 S8        30.24F
ORD            MOCLDY    61  47  59 S8        30.19R
YORK           CLEAR     59  48  67 SW7       30.22S
AURORA         PTCLDY    58  49  71 SW7       30.22S
LEXINGTON      CLEAR     58  51  77 S3        30.24S
HOLDREGE       CLEAR     57  50  77 S8        30.24F
HEBRON         CLOUDY    61  53  74 SW7       30.23F

...NEBRASKA PANHANDLE...

CITY           SKY/WX    TMP DP  RH WIND       PRES   REMARKS
CHADRON        PTCLDY    59  43  55 CALM      30.21S
ALLIANCE       CLEAR     60  50  69 S10       30.22S
SCOTTSBLUFF    CLEAR     63  51  65 S7        30.23S
SIDNEY         CLEAR     55  52  89 S8        30.29S

...WESTERN AND NORTH CENTRAL NEBRASKA...

CITY           SKY/WX    TMP DP  RH WIND       PRES   REMARKS
VALENTINE      MOCLDY    65  44  46 S5        30.17S
AINSWORTH      LGT RAIN  61  51  70 S7        30.19F
ONEILL         MOCLDY    61  44  54 S5        30.19R
BROKEN BOW     CLOUDY    63  48  58 SW6       30.23R
IMPERIAL       CLEAR     55  52  89 S6        30.28R
NORTH PLATTE   CLEAR     60  53  77 SW7       30.25R
MCCOOK         CLEAR     57  56  96 S8        30.26S

...EASTERN NEBRASKA...

CITY           SKY/WX    TMP DP  RH WIND       PRES   REMARKS
NORFOLK        PTCLDY    59  42  53 S10       30.18S
SO SIOUX CITY  CLEAR     54  44  69 E3        30.16F
TEKAMAH        CLEAR     55  39  54 CALM      30.18S
COLUMBUS       CLEAR     63  45  51 SW8       30.20S
ALBION         CLEAR     61  44  53 CALM      30.20S
OMAHA EPPLEY   CLEAR     63  46  54 E5        30.19S
OFFUTT AFB     CLEAR     54  49  86 CALM      30.19S
MILLARD        CLEAR     62  51  66 CALM      30.19S
LINCOLN        MOCLDY    64  49  57 SW7       30.21S
NEBRASKA CITY  CLEAR     59  50  71 SW6       30.22S
BEATRICE       CLEAR     59  51  75 S5        30.22S
FALLS CITY     CLEAR     57  52  83 S5        30.21F

...NORTHERN KANSAS...

CITY           SKY/WX    TMP DP  RH WIND       PRES   REMARKS
GOODLAND       CLOUDY    58  58 100 S8        30.30S
HILL CITY      PTCLDY    57  57 100 S3        30.29S
NORTON         CLEAR     55  52  88 S7        30.26S
PHILLIPSBURG   CLEAR     59  54  82 CALM      30.27S
SMITH CENTER   CLEAR     55  50  82 CALM      30.26F
HAYS           CLOUDY    57  56  96 CALM      30.28S
RUSSELL        PTCLDY    57  54  89 N3        30.26R
CONCORDIA      CLOUDY    57  52  83 S9        30.24F
SALINA         MOCLDY    63  56  78 CALM      30.25S
TOPEKA         CLEAR     58  57  97 CALM      30.26R



USA.gov is the U.S. government's official web portal to all federal, state and local government web resources and services.